www.pogodaiklimat.ru

Погода и климат >> Архив погоды >> Норвегия >> Obrestad Fyr


ПОГОДА в Obrestad Fyr

  • Прогноз погоды в Obrestad Fyr
  • Монитор погоды в Obrestad Fyr
  • Климат города

АРХИВ ПОГОДЫ в Obrestad Fyr

Время (UTC), дата Ветер
(напр.,м/с)
 
Видим.   Явления Облачность Т
(С)
Тd
(С)
f
(%)
Тe
(С)
Тes
(С)
Комфортность P
(гПа)
Po
(гПа)
Тmin
(С)
Tmax
(С)
R
(мм)
R24
(мм)
S
(см)
22 13.09 З 8
{10}
н/о н/о +13.1 +7.8 70 +10 +10 1011.8 1008.8
23 13.09 З 7
{18}
н/о н/о +12.8 +9.1 78 +10 +10 1011.6 1008.5
00 14.09 З 8
{18}
н/о н/о +12.9 +8.2 73 +10 +10 1011.3 1008.3
02 14.09 ЮЗ 5
{17}
н/о н/о +12.2 +8.7 79 +10 +10 1010.8 1007.7
01 14.09 ЮЗ 10
{13}
н/о н/о +13.1 +8.0 71 +10 +10 1010.9 1007.9
03 14.09 ЮЗ 10
{17}
н/о н/о +11.3 +8.2 81 +7 +7 1010.5 1007.4 1
04 14.09 ЮЗ 8 н/о н/о +12.3 +8.4 77 +9 +9 1010.5 1007.4
05 14.09 З 6
{9}
н/о н/о +12.7 +8.3 75 +10 +10 1010.3 1007.3
06 14.09 н/о +12.1 +8.8 80 +16 +16 1010.4 1007.4 +10.7 +13.1 2
08 14.09 ЮЗ 9
{12}
н/о н/о +13.4 +9.2 76 +11 +11 1010.1 1007.1
07 14.09 ЮЗ 8
{10}
н/о н/о +12.9 +9.1 78 +10 +10 1010.1 1007.1
09 14.09 ЮЗ 9
{12}
н/о н/о +13.5 +9.7 78 +11 +11 1010.2 1007.2
10 14.09 Ю 6
{12}
н/о н/о +13.4 +9.5 77 +11 +11 1009.7 1006.7
11 14.09 Ю 8
{12}
н/о н/о +13.3 +10.6 84 +11 +11 1009.2 1006.2
12 14.09 ЮЗ 11
{15}
н/о н/о +13.9 +10.7 81 +11 +11 1008.9 1005.9
14 14.09 ЮЗ 12
{14}
н/о н/о +13.8 +10.6 81 +11 +11 1007.9 1004.9
13 14.09 ЮЗ 13
{15}
н/о н/о +14.1 +10.6 79 +11 +11 1008.4 1005.4
15 14.09 ЮЗ 10
{15}
н/о н/о +13.3 +11.4 88 +10 +10 1007.2 1004.2
16 14.09 З 11
{15}
н/о н/о +12.2 +10.9 92 +8 +8 1007.3 1004.3 1
17 14.09 З 11
{13}
н/о н/о +13.1 +10.0 81 +10 +10 1007.4 1004.4
18 14.09 З 10
{15}
н/о н/о +12.2 +9.4 83 +9 +9 1008.1 1005.1 +12.0 +14.2
20 14.09 З 8
{13}
н/о н/о +10.7 +8.0 83 +7 +7 1009.2 1006.2
19 14.09 З 10
{13}
н/о н/о +12.5 +7.8 73 +9 +9 1008.7 1005.6
21 14.09 З 10
{13}
н/о н/о +12.0 +7.0 71 +8 +8 1009.3 1006.3
22 14.09 З 9
{12}
н/о н/о +12.1 +7.3 72 +9 +9 1009.6 1006.6
23 14.09 З 9
{13}
н/о н/о +12.0 +7.0 71 +9 +9 1009.8 1006.7
00 15.09 З 7
{15}
н/о н/о +11.3 +8.0 80 +8 +8 1010.0 1007.0
02 15.09 СЗ 9
{11}
н/о н/о +11.9 +7.4 74 +8 +8 1010.6 1007.5
01 15.09 З 8
{14}
н/о н/о +11.4 +8.2 81 +8 +8 1010.2 1007.2
03 15.09 СЗ 10
{12}
н/о н/о +12.0 +6.1 67 +8 +8 1010.9 1007.8
04 15.09 СЗ 9 н/о н/о +12.1 +6.7 70 +9 +9 1011.3 1008.3
05 15.09 СЗ 9
{12}
н/о н/о +11.9 +5.9 67 +9 +9 1011.9 1008.9
06 15.09 СЗ 9
{14}
н/о н/о +11.7 +6.8 72 +8 +8 1012.7 1009.6 +10.5 +12.7
08 15.09 З 12
{15}
н/о н/о +10.6 +7.4 81 +6 +6 1014.4 1011.3
07 15.09 З 7
{12}
н/о н/о +11.8 +6.5 70 +9 +9 1013.5 1010.5
09 15.09 З 8
{10}
н/о н/о +12.1 +6.9 70 +9 +9 1014.9 1011.9
10 15.09 З 8
{10}
н/о н/о +12.7 +7.5 71 +10 +10 1015.3 1012.3
11 15.09 З 9
{11}
н/о н/о +13.0 +7.6 70 +10 +10 1015.6 1012.6
12 15.09 З 9
{15}
н/о н/о +13.1 +7.4 68 +10 +10 1016.1 1013.1
14 15.09 З 9
{11}
н/о н/о +12.5 +6.9 69 +9 +9 1016.9 1013.9
13 15.09 З 9
{11}
н/о н/о +13.0 +6.8 66 +10 +10 1016.5 1013.5
15 15.09 З 9
{11}
н/о н/о +13.1 +6.9 66 +10 +10 1017.4 1014.3
16 15.09 З 7
{11}
н/о н/о +12.4 +6.6 68 +10 +10 1017.5 1014.5
17 15.09 З 8
{10}
н/о н/о +12.3 +6.5 68 +9 +9 1017.6 1014.5
18 15.09 З 8
{11}
н/о н/о +12.1 +6.6 69 +9 +9 1017.8 1014.8 +10.3 +13.5 0.7
20 15.09 З 6
{8}
н/о н/о +12.2 +6.8 70 +10 +10 1018.6 1015.5
19 15.09 З 6
{10}
н/о н/о +12.2 +7.0 71 +10 +10 1018.4 1015.3
21 15.09 З 7
{9}
н/о н/о +11.9 +6.4 69 +9 +9 1018.6 1015.5
22 15.09 З 6
{8}
н/о н/о +11.9 +6.6 70 +9 +9 1018.6 1015.5
23 15.09 З 5
{8}
н/о н/о +11.8 +7.0 72 +9 +9 1018.4 1015.4
00 16.09 ЮЗ 6
{10}
н/о н/о +11.5 +6.1 69 +9 +9 1018.1 1015.0
02 16.09 ЮЗ 6
{8}
н/о н/о +11.8 +6.4 69 +9 +9 1017.3 1014.3
01 16.09 ЮЗ 6
{8}
н/о н/о +11.7 +6.2 69 +9 +9 1017.8 1014.8
03 16.09 Ю 5
{8}
н/о н/о +10.4 +6.4 76 +8 +8 1016.7 1013.6
04 16.09 ЮВ 6
{8}
н/о н/о +10.4 +6.7 78 +7 +7 1015.7 1012.6
05 16.09 ЮВ 7
{10}
н/о н/о +10.2 +7.3 82 +7 +7 1015.2 1012.1
06 16.09 ЮВ 7
{11}
н/о н/о +9.8 +8.4 91 +6 +6 1014.7 1011.6 +9.8 +12.3
08 16.09 ЮВ 10
{13}
н/о н/о +10.7 +10.1 96 +6 +6 1012.8 1009.8 39
07 16.09 ЮВ 7
{12}
н/о н/о +10.0 +9.1 94 +6 +6 1013.9 1010.8 1
09 16.09 ЮВ 13
{18}
н/о н/о +11.2 +10.4 95 +7 +7 1011.2 1008.1 3
10 16.09 ЮВ 13
{18}
н/о н/о +11.3 +10.7 96 +7 +7 1009.7 1006.7 3
11 16.09 Ю 10
{21}
н/о н/о +13.1 +11.9 92 +10 +10 1009.0 1005.9 6
12 16.09 Ю 12
{21}
н/о н/о +13.7 +13.2 97 +10 +10 1007.8 1004.7 4
14 16.09 ЮЗ 12
{17}
н/о н/о +14.3 +13.3 94 +11 +11 1006.8 1003.8 1
13 16.09 Ю 11
{17}
н/о н/о +13.9 +13.6 98 +11 +11 1007.3 1004.3 5
15 16.09 ЮЗ 13
{16}
н/о н/о +14.7 +13.4 92 +12 +12 1007.1 1004.1 1
16 16.09 ЮЗ 13
{16}
н/о н/о +14.6 +13.2 91 +11 +11 1006.9 1003.9
17 16.09 ЮЗ 11
{15}
н/о н/о +14.4 +12.9 91 +11 +11 1007.4 1004.4
18 16.09 З 10
{17}
н/о н/о +14.3 +12.5 89 +12 +12 1007.8 1004.8 +9.9 +14.9
20 16.09 З 8
{10}
н/о н/о +13.8 +11.9 88 +11 +11 1008.4 1005.4
19 16.09 З 9
{12}
н/о н/о +14.1 +12.4 89 +11 +11 1008.1 1005.1
21 16.09 З 12
{14}
н/о н/о +11.9 +10.1 89 +8 +8 1009.0 1006.0
22 16.09 З 9
{14}
н/о н/о +12.0 +9.5 85 +8 +8 1009.5 1006.5
23 16.09 З 6
{12}
н/о н/о +12.7 +9.8 83 +10 +10 1009.8 1006.7
00 17.09 З 6
{16}
н/о н/о +11.6 +8.7 82 +9 +9 1010.5 1007.4
02 17.09 З 6
{9}
н/о н/о +12.4 +8.0 75 +10 +10 1011.3 1008.2
01 17.09 СЗ 5
{13}
н/о н/о +12.0 +7.9 76 +10 +10 1011.0 1008.0
03 17.09 З 4
{7}
н/о н/о +12.3 +8.6 78 +10 +10 1011.3 1008.3
04 17.09 З 7
{10}
н/о н/о +12.8 +7.3 69 +10 +10 1011.4 1008.4
05 17.09 З 5
{8}
н/о н/о +12.6 +7.3 70 +10 +10 1011.5 1008.4
06 17.09 ЮЗ 7
{13}
н/о н/о +13.0 +8.6 75 +10 +10 1011.7 1008.7 +10.6 +14.4
08 17.09 ЮЗ 7
{9}
н/о н/о +13.6 +9.6 77 +11 +11 1012.2 1009.2
07 17.09 ЮЗ 7
{9}
н/о н/о +13.1 +9.1 77 +11 +11 1012.1 1009.1
09 17.09 ЮЗ 7
{10}
н/о н/о +13.8 +10.0 78 +11 +11 1012.7 1009.7
10 17.09 ЮЗ 7
{9}
н/о н/о +14.0 +9.9 76 +12 +12 1013.1 1010.1
11 17.09 ЮЗ 7
{10}
н/о н/о +13.9 +10.4 79 +12 +12 1012.8 1009.8
12 17.09 Ю 6
{10}
н/о н/о +14.0 +11.3 84 +12 +12 1012.7 1009.7
14 17.09 Ю 7
{10}
н/о н/о +14.1 +11.8 86 +12 +12 1012.4 1009.4
13 17.09 Ю 7
{10}
н/о н/о +14.1 +11.5 84 +12 +12 1012.7 1009.7
15 17.09 Ю 6
{9}
н/о н/о +14.2 +11.8 85 +12 +12 1011.9 1008.8
16 17.09 Ю 8
{11}
н/о н/о +14.2 +12.1 87 +12 +12 1010.7 1007.7
17 17.09 ЮВ 10
{13}
н/о н/о +13.9 +12.2 89 +11 +11 1009.5 1006.5
18 17.09 Ю 13
{17}
н/о н/о +14.3 +12.7 90 +11 +11 1009.4 1006.4 +12.8 +14.5
20 17.09 ЮВ 12
{18}
н/о н/о +14.4 +13.4 94 +11 +11 1008.3 1005.3
19 17.09 ЮВ 11
{15}
н/о н/о +14.1 +12.7 91 +11 +11 1009.0 1006.0
21 17.09 Ю 11
{16}
н/о н/о +14.1 +13.9 99 +11 +11 1007.7 1004.7
22 17.09 ЮВ 11
{17}
н/о н/о +14.0 +13.9 99 +11 +11 1007.3 1004.3
23 17.09 Ю 9
{13}
н/о н/о +15.1 +13 +13 1006.5 1003.5
00 18.09 Ю 7
{18}
н/о н/о +15.1 +15.1 100 +13 +13 1006.3 1003.3
02 18.09 Ю 10
{14}
н/о н/о +15.2 +14.9 98 +13 +13 1005.2 1002.2
01 18.09 Ю 9
{12}
н/о н/о +15.1 +15.0 99 +13 +13 1005.7 1002.7
03 18.09 Ю 11
{14}
н/о н/о +15.1 +14.7 97 +12 +12 1004.8 1001.8
04 18.09 ЮВ 10
{14}
н/о н/о +14.8 +14.1 96 +12 +12 1004.4 1001.4
05 18.09 ЮВ 12
{15}
н/о н/о +14.8 +13.7 93 +12 +12 1003.8 1000.8
06 18.09 Ю 12
{16}
н/о н/о +14.8 +13.8 94 +12 +12 1003.4 1000.4 +13.6 +15.4
08 18.09 ЮВ 12
{15}
н/о н/о +16.3 +13.8 85 +14 +14 1002.7 999.8
07 18.09 ЮВ 12
{17}
н/о н/о +15.4 +13.8 90 +13 +13 1003.4 1000.4
09 18.09 ЮВ 12
{17}
н/о н/о +17.3 +13.5 78 +16 +16 1001.9 999.0
10 18.09 ЮВ 14
{19}
н/о н/о +18.0 +12.8 72 +16 +16 1001.1 998.1
11 18.09 ЮВ 13
{19}
н/о н/о +18.8 +12.7 68 +18 +18 1000.3 997.4
12 18.09 ЮВ 17
{22}
н/о н/о +18.1 +12.8 71 +16 +16 999.6 996.6
14 18.09 ЮВ 15
{21}
н/о н/о +16.9 +14.1 84 +15 +15 998.2 995.3
13 18.09 ЮВ 15
{22}
н/о н/о +17.7 +13.7 77 +16 +16 999.0 996.1
15 18.09 ЮВ 15
{20}
н/о н/о +15.7 +14.6 93 +13 +13 997.6 994.6
16 18.09 Ю 13
{18}
н/о н/о +15.2 +15.1 99 +12 +12 997.3 994.3 4
17 18.09 Ю 11
{17}
н/о н/о +15.1 +13 +13 997.2 994.2 1
18 18.09 Ю 11
{22}
н/о н/о +15.3 +15.1 99 +13 +13 998.0 995.1 +14.8 +19.0
20 18.09 Ю 8
{15}
н/о н/о +15.4 +14.6 95 +13 +13 1000.0 997.0
19 18.09 ЮЗ 12
{17}
н/о н/о +15.4 +14.6 95 +13 +13 999.2 996.2
21 18.09 ЮЗ 11
{17}
н/о н/о +15.3 +14.0 92 +13 +13 1000.8 997.8
22 18.09 ЮЗ 11
{15}
н/о н/о +15.3 +13.2 87 +13 +13 1002.0 999.0
23 18.09 Ю 8
{14}
н/о н/о +15.0 +12.9 87 +13 +13 1002.4 999.4
00 19.09 Ю 8
{17}
н/о н/о +14.8 +13.1 90 +13 +13 1003.0 1000.0
02 19.09 Ю 6
{11}
н/о н/о +15.0 +13.9 93 +13 +13 1003.6 1000.6
01 19.09 ЮЗ 10
{13}
н/о н/о +15.0 +13.1 88 +13 +13 1003.3 1000.3
03 19.09 Ю 8
{11}
н/о н/о +15.3 +14.0 92 +13 +13 1003.4 1000.4
04 19.09 Ю 8 н/о н/о +15.6 +14.1 91 +14 +14 1003.4 1000.5
05 19.09 Ю 7
{12}
н/о н/о +15.5 +14.2 92 +14 +14 1003.5 1000.5
06 19.09 Ю 9
{13}
н/о н/о +15.5 +14.0 91 +13 +13 1003.8 1000.8 +14.7 +15.8
08 19.09 ЮЗ 9
{14}
н/о н/о +15.4 +13.6 89 +13 +13 1005.0 1002.0
07 19.09 Ю 9
{15}
н/о н/о +15.4 +13.8 90 +13 +13 1004.3 1001.3
09 19.09 Ю 7
{13}
н/о н/о +15.3 +12.7 84 +13 +13 1005.0 1002.0
10 19.09 Ю 8
{10}
н/о н/о +15.6 +12.9 84 +14 +14 1004.3 1001.3
11 19.09 Ю 9
{12}
н/о н/о +15.5 +13.1 86 +13 +13 1003.7 1000.7
12 19.09 Ю 11
{15}
н/о н/о +15.2 +13.4 89 +13 +13 1002.5 999.5
14 19.09 Ю 17
{23}
н/о н/о +15.3 +14.4 94 +12 +12 999.5 996.5
13 19.09 Ю 16
{20}
н/о н/о +15.2 +13.7 91 +12 +12 1001.1 998.1
15 19.09 Ю 17
{24}
н/о н/о +15.4 +14.1 92 +12 +12 998.2 995.2
16 19.09 Ю 17
{24}
н/о н/о +15.6 +13.8 89 +13 +13 997.2 994.3
17 19.09 Ю 15
{23}
н/о н/о +15.8 +14.1 90 +13 +13 995.7 992.8
18 19.09 Ю 17
{24}
н/о н/о +16.5 +13.2 81 +14 +14 995.6 992.6 +14.9 +16.6
20 19.09 ЮЗ 20
{26}
н/о н/о +14.4 +9.8 74 +11 +11 998.9 995.9
19 19.09 ЮЗ 20
{26}
н/о н/о +15.3 +10.1 71 +12 +12 997.5 994.5
21 19.09 ЮЗ 19
{24}
н/о н/о +13.8 +9.0 73 +10 +10 999.5 996.5
22 19.09 ЮЗ 17
{24}
н/о н/о +13.7 +9.2 74 +10 +10 1000.1 997.1
23 19.09 ЮЗ 18
{22}
н/о н/о +13.1 +8.2 72 +9 +9 1000.6 997.6
00 20.09 ЮЗ 17
{26}
н/о н/о +13.0 +7.9 71 +9 +9 1001.1 998.1
02 20.09 ЮЗ 17
{22}
н/о н/о +12.6 +7.5 71 +8 +8 1001.7 998.7
01 20.09 ЮЗ 18
{22}
н/о н/о +12.9 +7.6 70 +9 +9 1001.3 998.3
03 20.09 ЮЗ 17
{22}
н/о н/о +12.6 +6.9 68 +8 +8 1001.9 998.8
04 20.09 ЮЗ 17
{22}
н/о н/о +12.7 +7.1 69 +8 +8 1002.0 999.0
05 20.09 ЮЗ 17
{22}
н/о н/о +12.4 +6.1 65 +8 +8 1002.1 999.1
06 20.09 ЮЗ 15
{22}
н/о н/о +12.4 +6.9 69 +8 +8 1002.3 999.3 +12.3 +16.5
08 20.09 ЮЗ 16
{21}
н/о н/о +12.7 +7.1 69 +9 +9 1002.6 999.6
07 20.09 ЮЗ 16
{22}
н/о н/о +12.5 +6.8 68 +8 +8 1002.3 999.3
09 20.09 ЮЗ 16
{20}
н/о н/о +12.6 +7.3 70 +8 +8 1003.3 1000.3
10 20.09 ЮЗ 15
{18}
н/о н/о +12.7 +7.8 72 +9 +9 1003.8 1000.8
11 20.09 ЮЗ 15
{21}
н/о н/о +13.1 +7.8 70 +9 +9 1004.0 1001.0
12 20.09 ЮЗ 14
{22}
н/о н/о +13.4 +8.8 74 +10 +10 1004.2 1001.2
14 20.09 ЮЗ 14
{17}
н/о н/о +13.0 +8.2 73 +9 +9 1004.9 1001.9
13 20.09 ЮЗ 15
{18}
н/о н/о +13.1 +8.0 71 +9 +9 1004.4 1001.4
15 20.09 ЮЗ 12
{17}
н/о н/о +13.0 +7.9 71 +10 +10 1004.9 1001.9
16 20.09 ЮЗ 11
{14}
н/о н/о +12.7 +7.8 72 +9 +9 1005.2 1002.1
17 20.09 ЮЗ 10
{14}
н/о н/о +12.7 +8.4 75 +9 +9 1004.9 1001.9
18 20.09 ЮЗ 9
{18}
н/о н/о +12.7 +7.5 71 +10 +10 1005.0 1001.9 +11.0 +13.6
20 20.09 Ю 7
{12}
н/о н/о +12.8 +7.1 68 +10 +10 1003.8 1000.8
19 20.09 ЮЗ 7
{12}
н/о н/о +12.5 +6.6 67 +10 +10 1004.3 1001.3
21 20.09 Ю 7
{10}
н/о н/о +12.5 +7.2 70 +10 +10 1002.5 999.5

 

Местоположение метеостанции Obrestad Fyr (Норвегия): широта 58.65 долгота 5.56 высота над уровнем моря 24 м.

В архиве по умолчанию представлена погода в Obrestad Fyr за последнюю неделю. Архивные данные за месяц целиком и за предыдущие месяцы, начиная с января 2011 года, Вы можете получить, выбрав интересующий диапазон дат из раскрывающегося списка и нажав кнопку "Ввод!".


*Определитесь, кто Вы:
робот инопланетянин человек

Внимание! Время в таблицах - всемирное. Для получения местного времени необходимо прибавить поправку, которая в Obrestad Fyr равна 1 ч.

Смотрите также архив погоды в соседних городах и на ближайших метеорологических станциях:

Погода в Saerheim (Норвегия) (13 км)
Погода в Stavanger Lufthavn (Норвегия) (26 км)
Погода в Eigeroya (Норвегия) (29 км)
Погода в Stavanger (Норвегия) (36 км)
Погода в Kvitsoy (Норвегия) (47 км)
Погода в Liarvatn (Норвегия) (55 км)
Погода в Eik-Hove (Норвегия) (57 км)
Погода в Fister-Sigmundstad (Норвегия) (64 км)
Погода в Haugesund Lufthavn (Норвегия) (81 км)
Погода в Utsira Fyr (Норвегия) (83 км)

Пояснения к столбцам:

Ветер - указаны скорость ветра в м/с - средняя за 10 мин, порывы в срок и между сроками (в фигурных скобках) и направление, откуда дует ветер: С - северный, СВ - северо-восточный, В - восточный, ЮВ - юго-восточный, Ю - южный, ЮЗ - юго-западный, З - западный, СЗ - северо-западный.
Видимость - горизонтальная дальность видимости в метрах или километрах. При видимости от 1 до 10 км при отсутствии осадков обычно наблюдается дымка, при ухудшении видимости до 1 км и менее - туман. В сухую погоду видимость может ухудшаться дымом, пылью или мглою.
Явления - указаны атмосферные явления, наблюдавшиеся в срок или в последний час перед сроком; фигурными скобками обозначены явления, наблюдавшиеся между сроками (за 1-3 часа до срока); квадратными скобками обозначены град или гололедные отложения с указанием их диаметра в мм.
Облачность - указаны через наклонную черту общая и нижняя облачность в баллах и высота нижней границы облаков в метрах; квадратными скобками обозначены формы облаков: Ci - перистые, Cs - перисто-слоистые, Cc - перисто-кучевые, Ac - высококучевые, As - высокослоистые, Sc - слоисто-кучевые, Ns - слоисто-дождевые, Cu - кучевые, Cb - кучево-дождевые. Подробнее классификацию облаков см. в Атласе облаков (PDF).
T - Температура воздуха - температура, измеренная на высоте 2 м над землей.
Td - Температура точки росы - температура, при понижении до которой содержащийся в воздухе водяной пар достигнет насыщения.
f - Относительная влажность воздуха - влажноcть воздуха, измеренная на высоте 2 м над землей.
Te - Эффективная температура - температура, которую ощущает одетый по сезону человек в тени. Характеристика душности погоды. При расчете учитывается влияние влажности воздуха и скорости ветра на теплоощущения человека.
Tes - Эффективная температура на солнце - температура, которую ощущает человек, с поправкой на солнечный нагрев. Характеристика знойности погоды. Зависит от высоты солнца над горизонтом, облачности и скорости ветра. Ночью, в пасмурную погоду, а также при ветре 12 м/с и более поправка равна нулю.
P - Атмосферное давление - приведенное к уровню моря атмосферное давление.
Po - Атмосферное давление - измеренное на уровне метеостанции атмосферное давление.
Tmin - Минимальная температура - минимум температуры воздуха на высоте 2 м над землей.
Tmax - Максимальная температура - максимум температуры воздуха на высоте 2 м над землей.
R - Количество осадков - Количество выпавших осадков за период времени, мм. При наведении курсора мыши на число - период времени, за который выпало указанное количество осадков.
R24 - Количество осадков - Количество выпавших осадков за 24 часа, мм.
S - Снежный покров - Высота снежного покрова, см. При наведении курсора мыши на число - состояние снежного покрова и степень покрытия местности в баллах.